Regional Weather Roundup
Issued by NWS Goodland, KS

Home | Current Version | Previous Version | Graphics & Text | Print | Product List | Glossary On
Versions: 1 2 3 4 5 6 7 8 9 10 11 12 13 14 15 16 17 18 19 20 21 22 23 24 25 26 27 28 29 30 31 32 33 34 35 36 37 38 39 40 41 42 43 44 45 46 47 48 49 50
000
ASUS43 KGLD 251108
RWRGLD

GOODLAND FORECAST AREA HOURLY WEATHER ROUNDUP
NATIONAL WEATHER SERVICE GOODLAND KS
500 AM MDT SAT MAR 25 2017

...OFFICIAL OBSERVATIONS...

CITY           SKY/WX    TMP DP  RH WIND       PRES   REMARKS
GOODLAND KS    CLEAR     33  30  88 NW12      30.04F
HILL CITY KS   CLOUDY    42  39  89 N9        30.00S
IMPERIAL NEB   CLOUDY    32  27  81 NW8       30.06R
MCCOOK NEB     CLEAR     34  32  92 N6        30.03F
AKRON CO       CLOUDY    36  29  75 SW3       30.06F
BURLINGTON CO  CLOUDY    31  29  92 NW9       30.05F
LIMON CO       CLOUDY    26  24  92 N5        30.08S
$$

...UNOFFICIAL OBSERVATIONS...

CITY           SKY/WX    TMP DP  RH WIND       PRES   REMARKS
LENORA KS        N/A     40  32  73 CALM        N/A
NORTON KS      CLEAR     37  32  81 N12       30.02R
SHARON SPRINGS   N/A     33  31  94 NW10        N/A
TRENTON NEB      N/A     32  32 100 N6          N/A
YUMA CO        FAIR      28  27  93 W8        30.07S
$$




USA.gov is the U.S. government's official web portal to all federal, state and local government web resources and services.